TimePST,TemperatureF,Dew PointF,Humidity,Sea Level PressureIn,VisibilityMPH,Wind Direction,Wind SpeedMPH,Gust SpeedMPH,PrecipitationIn,Events,Conditions,WindDirDegrees,DateUTC
12:00 AM,45.0,43.5,95,29.69,-9999.0,South,12.7,-,N/A,,Unknown,170,2013-01-23 08:00:00
1:00 AM,44.8,42.4,91,29.69,-9999.0,South,8.1,-,N/A,,Unknown,180,2013-01-23 09:00:00
2:00 AM,44.8,41.9,90,29.70,-9999.0,South,8.1,-,N/A,,Unknown,170,2013-01-23 10:00:00
3:00 AM,43.2,40.6,91,29.71,-9999.0,SW,4.6,-,N/A,,Unknown,220,2013-01-23 11:00:00
4:00 AM,44,41,83,29.72,,South,6.9,,,,,170,2013-01-23 12:00:00
4:00 AM,43.5,40.6,90,29.72,-9999.0,South,6.9,-,N/A,,Unknown,170,2013-01-23 12:00:00
5:00 AM,42.6,40.5,92,29.73,-9999.0,SSW,3.5,-,N/A,,Unknown,200,2013-01-23 13:00:00
6:00 AM,42.6,39.4,88,29.73,-9999.0,WSW,1.2,-,N/A,,Unknown,250,2013-01-23 14:00:00
7:00 AM,42.8,39.2,87,29.73,-9999.0,South,11.5,-,N/A,,Unknown,190,2013-01-23 15:00:00
9:00 AM,42.1,37.6,84,29.74,-9999.0,SSW,9.2,-,N/A,,Unknown,200,2013-01-23 17:00:00
10:00 AM,42,37,78,29.75,,South,8.1,,,,,190,2013-01-23 18:00:00
10:00 AM,42.4,37.4,82,29.75,-9999.0,South,8.1,-,N/A,,Unknown,190,2013-01-23 18:00:00
11:00 AM,43.0,36.1,77,29.75,-9999.0,South,8.1,-,N/A,,Unknown,170,2013-01-23 19:00:00
12:00 PM,43.3,35.8,75,29.75,-9999.0,South,13.8,-,N/A,,Unknown,180,2013-01-23 20:00:00
1:00 PM,43.2,36.5,77,29.75,-9999.0,South,11.5,-,N/A,,Unknown,170,2013-01-23 21:00:00
2:00 PM,43.5,37.0,78,29.74,-9999.0,SSE,13.8,-,N/A,,Unknown,160,2013-01-23 22:00:00
3:00 PM,43.9,35.8,73,29.74,-9999.0,South,15.0,-,N/A,,Unknown,170,2013-01-23 23:00:00
4:00 PM,44,38,71,29.75,,South,13.8,,,,,170,2013-01-24 00:00:00
4:00 PM,43.7,37.6,79,29.75,-9999.0,South,13.8,-,N/A,,Unknown,170,2013-01-24 00:00:00
5:00 PM,43.3,38.7,84,29.76,-9999.0,South,12.7,-,N/A,,Unknown,180,2013-01-24 01:00:00
6:00 PM,43.0,38.7,85,29.78,-9999.0,South,11.5,-,N/A,,Unknown,180,2013-01-24 02:00:00
7:00 PM,43.0,38.3,84,29.79,-9999.0,South,10.4,-,N/A,,Unknown,180,2013-01-24 03:00:00
8:00 PM,42.8,38.3,84,29.80,-9999.0,South,12.7,-,N/A,,Unknown,180,2013-01-24 04:00:00
9:00 PM,43.0,38.7,85,29.81,-9999.0,South,13.8,-,N/A,,Unknown,180,2013-01-24 05:00:00
10:00 PM,43,39,81,29.83,,South,11.5,,,,,180,2013-01-24 06:00:00
10:00 PM,43.2,39.2,86,29.83,-9999.0,South,11.5,-,N/A,,Unknown,180,2013-01-24 06:00:00
11:00 PM,43.2,38.1,82,29.84,-9999.0,South,17.3,-,N/A,,Unknown,180,2013-01-24 07:00:00